[Iaude] MPEC S232: 2017 SV19 [a=1.06,e=0.04,i=1.3,H=25.1]

mpec at mpcdb1.cfa.harvard.edu mpec at mpcdb1.cfa.harvard.edu
Sat Sep 30 13:59:16 EDT 2017


M.P.E.C. 2017-S232                               Issued 2017 Sept. 30, 17:54 UT
 
     The Minor Planet Electronic Circulars contain information on unusual
         minor planets and routine data on comets.  They are published
    on behalf of Division F of the International Astronomical Union by the
          Minor Planet Center, Smithsonian Astrophysical Observatory,
                          Cambridge, MA 02138, U.S.A.

             Prepared using the Tamkin Foundation Computer Network

                              MPC at CFA.HARVARD.EDU
            URL http://www.minorplanetcenter.net/    ISSN 1523-6714


                                   2017 SV19
 
Observations:
     K17S19V  C2017 09 15.48638 00 09 51.762+03 49 23.71         21.2 wLES232F51
     K17S19V  C2017 09 24.40674 23 47 17.317+03 36 59.40         20.1 wLES232F51
     K17S19V* C2017 09 27.26664 23 40 00.87 +03 29 17.4          19.8 VqES232G96
     K17S19V  C2017 09 27.27188 23 39 59.89 +03 29 16.4          19.7 VqES232G96
     K17S19V  C2017 09 27.27712 23 39 58.90 +03 29 15.8          19.8 VqES232G96
     K17S19V  C2017 09 27.28237 23 39 57.95 +03 29 14.5          20.1 VqES232G96
     K17S19V  C2017 09 27.35017 23 39 49.888+03 29 21.49         21.0 iLES232F51
     K17S19V  C2017 09 27.37593 23 39 45.092+03 29 17.48         20.7 iLES232F51
     K17S19V  C2017 09 27.38884 23 39 42.697+03 29 15.51         21.0 iLES232F51
     K17S19V  C2017 09 27.41532 23 39 34.07 +03 28 51.5          20.1 VqES232G96
     K17S19V  C2017 09 27.41789 23 39 33.67 +03 28 50.6          20.7 VqES232G96
     K17S19V  C2017 09 27.41993 23 39 33.27 +03 28 50.3          20.4 VqES232G96
     K17S19V  C2017 09 27.42197 23 39 32.97 +03 28 50.4          20.7 VqES232G96
     K17S19V KC2017 09 28.18006323 37 45.39 +03 26 35.6          21.0 VuES232H21
     K17S19V KC2017 09 28.18900823 37 43.80 +03 26 34.2          21.0 VuES232H21
     K17S19V KC2017 09 28.19706523 37 42.35 +03 26 33.1          21.0 VuES232H21
     K17S19V  C2017 09 28.28474 23 37 28.62 +03 26 28.4          23.0 VqES232I52
     K17S19V  C2017 09 28.28722 23 37 28.21 +03 26 27.3          22.1 VqES232I52
     K17S19V  C2017 09 28.28972 23 37 27.74 +03 26 27.2          21.5 VqES232I52
     K17S19V  C2017 09 28.29221 23 37 27.31 +03 26 26.9          21.6 VqES232I52
     K17S19V  C2017 09 28.29417 23 37 26.90 +03 26 26.2          20.4 VqES232G96
     K17S19V  C2017 09 28.29569 23 37 26.65 +03 26 26.3          20.3 VqES232G96
     K17S19V  C2017 09 28.29930 23 37 26.01 +03 26 25.8          20.0 VqES232G96
     K17S19V  C2017 09 28.30187 23 37 25.54 +03 26 25.4          20.2 VqES232G96
     K17S19V KC2017 09 30.18014023 32 55.54 +03 20 55.8          20.9 VuES232H21
     K17S19V KC2017 09 30.18965423 32 53.90 +03 20 54.1          21.0 VuES232H21
     K17S19V  C2017 09 30.20306 23 32 53.75 +03 21 01.7          21.1 VqES232I52
     K17S19V  C2017 09 30.20513 23 32 53.35 +03 21 01.8          20.5 VqES232I52
     K17S19V  C2017 09 30.20720 23 32 52.96 +03 21 01.6          20.6 VqES232I52
     K17S19V  C2017 09 30.20928 23 32 52.61 +03 21 00.7          20.9 VqES232I52
     K17S19V  C2017 09 30.26771 23 32 42.43 +03 20 51.5          20.3 RoES232926
     K17S19V  C2017 09 30.27154 23 32 41.75 +03 20 51.6          20.6 RoES232926
     K17S19V  C2017 09 30.27538 23 32 41.08 +03 20 50.9          20.4 RoES232926
 
Observer details:
926 Tenagra II Observatory.  Observers M. Schwartz, P. R. Holvorcem.  Measurer
    M. Schwartz.  0.81-m f/7 Ritchey-Chretien + CCD.
F51 Pan-STARRS 1, Haleakala.  Observers J. Bulger, T. Lowe, A. Schultz,
    M. Willman.  Measurers K. Chambers, S. Chastel, L. Denneau, H. Flewelling,
    M. Huber, E. Lilly, E. Magnier, R. Wainscoat, C. Waters, R. Weryk.  1.8-m
    Ritchey-Chretien + CCD.
G96 Mt. Lemmon Survey.  Observers R. G. Matheny, J. A. Johnson.  Measurers
    E. J. Christensen, D. C. Fuls, A. R. Gibbs, A. D. Grauer, J. A. Johnson,
    R. A. Kowalski, S. M. Larson, G. J. Leonard, R. G. Matheny, R. L. Seaman,
    F. C. Shelly.  1.5-m reflector + 10K CCD.
H21 Astronomical Research Observatory, Westfield.  Observer R. Holmes.
    Measurers S. Foglia, L. Buzzi, T. Linder, R. Holmes.  0.76-m f/3.0
    astrograph + CCD, 0.81-m f/4.0 astrograph + CCD.
I52 Steward Observatory, Mt. Lemmon Station.  Observer R. A. Kowalski.
    Measurers E. J. Christensen, D. C. Fuls, A. R. Gibbs, A. D. Grauer,
    J. A. Johnson, R. A. Kowalski, S. M. Larson, G. J. Leonard, R. G. Matheny,
    R. L. Seaman, F. C. Shelly.  1.0-m reflector + CCD.
 
Orbital elements:
2017 SV19                                                Earth MOID = 0.0326 AU
Epoch 2017 Sept. 4.0 TT = JDT 2458000.5                 MPC
M 204.45027              (2000.0)            P               Q
n   0.89986681     Peri.  157.33891     -0.78027484     -0.62540500
a   1.0625529      Node   343.94430     +0.57027650     -0.70728279
e   0.0402896      Incl.    1.30635     +0.25681879     -0.32957495
P   1.10           H   25.1           G   0.15           U   6
Residuals in seconds of arc
170915 F51  0.0   0.0     170927 G96  0.3-  0.1-    170928 G96  0.1+  0.1+
170924 F51  0.2+  0.2-    170927 G96  0.4+  0.4+    170928 G96  0.1+  0.1+
170927 G96  0.6+  0.1-    170928 H21  0.2-  0.3-    170930 H21  0.4-  0.3-
170927 G96  0.3+  0.2-    170928 H21  0.1-  0.3-    170930 H21  0.4-  0.4-
170927 G96  0.1-  0.0     170928 H21  0.3-  0.0     170930 I52  0.9+  0.1+
170927 G96  0.2+  0.4-    170928 I52  0.2-  0.2+    170930 I52  0.3+  0.6+
170927 F51  0.3-  0.1+    170928 I52  0.3+  0.5-    170930 I52  0.2-  0.7+
170927 F51  0.3-  0.1+    170928 I52  0.1+  0.2-    170930 I52  0.0   0.1+
170927 F51  0.0   0.2+    170928 I52  0.4+  0.0     170930 926  0.1+  0.8-
170927 G96  0.1-  0.2+    170928 G96  0.4-  0.4-    170930 926  0.0   0.0
170927 G96  0.5+  0.2-    170928 G96  0.0   0.0     170930 926  0.0   0.1-

Ephemeris:
2017 SV19                a,e,i = 1.06, 0.04, 1                   q = 1.0197
Date    TT    R. A. (2000) Decl.     Delta      r     Elong.  Phase     V
2017 08 31    00 37 22.6 +03 10 14   0.1086  1.1028   147.7    29.3    21.8
...
2017 09 15    00 11 02.0 +03 49 51   0.09467 1.0984   167.8    11.1    20.9
...
2017 09 23    23 50 55.3 +03 40 40   0.09203 1.0953   175.7     3.9    20.5
...
2017 09 29    23 35 44.4 +03 25 13   0.09253 1.0926   168.6    10.5    20.8
2017 09 30    23 33 20.6 +03 22 22   0.09282 1.0922   167.1    11.8    20.8
2017 10 01    23 31 00.1 +03 19 31   0.09315 1.0917   165.6    13.2    20.9
...
2017 10 07    23 18 24.9 +03 03 25   0.09622 1.0887   157.0    21.1    21.2
...
2017 10 15    23 06 25.4 +02 49 14   0.1028  1.0843   146.4    30.6    21.7
...
2017 10 30    23 00 51.0 +03 05 49   0.1204  1.0752   130.5    44.6    22.4

A. U. Tomatic                (C) Copyright 2017 MPC           M.P.E.C. 2017-S232




More information about the Iaude mailing list